TimeCET,TemperatureF,Dew PointF,Humidity,Sea Level PressureIn,VisibilityMPH,Wind Direction,Wind SpeedMPH,Gust SpeedMPH,PrecipitationIn,Events,Conditions,WindDirDegrees,DateUTC
12:20 AM,53.6,51.8,94,30.21,3.1,North,2.3,-,N/A,,Mist,360,2012-11-23 23:20:00
12:50 AM,51.8,50.0,94,30.21,3.1,North,2.3,-,N/A,,Mist,10,2012-11-23 23:50:00
1:20 AM,51.8,51.8,100,30.21,3.1,North,3.5,-,N/A,,Mist,350,2012-11-24 00:20:00
2:20 AM,51.8,51.8,100,30.21,3.1,North,3.5,-,N/A,,Mist,350,2012-11-24 01:20:00
2:50 AM,51.8,51.8,100,30.21,3.1,NNW,3.5,-,N/A,,Mist,330,2012-11-24 01:50:00
3:20 AM,51.8,50.0,94,30.21,3.1,North,3.5,-,N/A,,Mist,360,2012-11-24 02:20:00
4:50 AM,50.0,50.0,100,30.21,3.1,NNW,3.5,-,N/A,,Mist,340,2012-11-24 03:50:00
5:50 AM,51.8,50.0,94,30.21,3.1,NNW,3.5,-,N/A,,Mist,340,2012-11-24 04:50:00
6:20 AM,51.8,50.0,94,30.21,3.1,NNW,3.5,-,N/A,,Mist,330,2012-11-24 05:20:00
6:50 AM,51.8,50.0,94,30.21,5.0,NW,2.3,-,N/A,,Unknown,310,2012-11-24 05:50:00
7:20 AM,51.8,50.0,94,30.21,5.0,Variable,2.3,-,N/A,,Unknown,0,2012-11-24 06:20:00
7:50 AM,50.0,48.2,94,30.24,5.0,NNW,3.5,-,N/A,,Unknown,330,2012-11-24 06:50:00
8:20 AM,55.4,53.6,94,30.24,5.0,NNW,3.5,-,N/A,,Unknown,340,2012-11-24 07:20:00
8:50 AM,55.4,53.6,94,30.24,5.0,North,3.5,-,N/A,,Unknown,350,2012-11-24 07:50:00
9:20 AM,57.2,53.6,88,30.24,5.0,North,3.5,-,N/A,,Unknown,10,2012-11-24 08:20:00
9:50 AM,57.2,53.6,88,30.24,5.0,NE,4.6,-,N/A,,Unknown,40,2012-11-24 08:50:00
10:20 AM,60.8,53.6,77,30.24,5.0,Variable,1.2,-,N/A,,Unknown,0,2012-11-24 09:20:00
10:50 AM,62.6,53.6,72,30.24,5.0,Variable,2.3,-,N/A,,Unknown,0,2012-11-24 09:50:00
11:20 AM,64.4,55.4,73,30.24,5.0,Variable,1.2,-,N/A,,Unknown,0,2012-11-24 10:20:00
11:50 AM,66.2,53.6,64,30.21,5.0,Variable,1.2,-,N/A,,Partly Cloudy,0,2012-11-24 10:50:00
12:20 PM,64.4,53.6,68,30.21,5.0,NNW,3.5,-,N/A,,Partly Cloudy,340,2012-11-24 11:20:00
12:50 PM,66.2,53.6,64,30.21,5.0,NNW,4.6,-,N/A,,Partly Cloudy,330,2012-11-24 11:50:00
1:20 PM,64.4,55.4,73,30.21,5.0,NW,4.6,-,N/A,,Partly Cloudy,310,2012-11-24 12:20:00
1:50 PM,64.4,53.6,68,30.21,6.2,WNW,3.5,-,N/A,,Partly Cloudy,300,2012-11-24 12:50:00
2:20 PM,64.4,53.6,68,30.21,6.2,Variable,1.2,-,N/A,,Partly Cloudy,0,2012-11-24 13:20:00
2:50 PM,64.4,55.4,73,30.21,6.2,SSE,2.3,-,N/A,,Partly Cloudy,160,2012-11-24 13:50:00
3:20 PM,66.2,55.4,68,30.21,6.2,Variable,1.2,-,N/A,,Partly Cloudy,0,2012-11-24 14:20:00
3:50 PM,64.4,55.4,73,30.21,-9999.0,South,2.3,-,N/A,,Clear,190,2012-11-24 14:50:00
4:20 PM,64.4,55.4,73,30.21,5.0,SSW,3.5,-,N/A,,Unknown,210,2012-11-24 15:20:00
4:50 PM,62.6,55.4,77,30.21,3.7,NW,6.9,-,N/A,,Unknown,310,2012-11-24 15:50:00
5:20 PM,60.8,55.4,82,30.21,3.7,WNW,6.9,-,N/A,,Unknown,300,2012-11-24 16:20:00
5:50 PM,59.0,55.4,88,30.21,3.7,NW,4.6,-,N/A,,Unknown,310,2012-11-24 16:50:00
6:20 PM,59.0,55.4,88,30.21,3.7,WNW,4.6,-,N/A,,Unknown,300,2012-11-24 17:20:00
6:50 PM,59.0,53.6,82,30.21,3.7,East,3.5,-,N/A,,Unknown,80,2012-11-24 17:50:00
7:20 PM,57.2,53.6,88,30.21,3.7,Variable,2.3,-,N/A,,Unknown,0,2012-11-24 18:20:00
7:50 PM,57.2,53.6,88,30.24,3.7,East,1.2,-,N/A,,Unknown,80,2012-11-24 18:50:00
8:20 PM,55.4,53.6,94,30.24,3.1,Calm,Calm,-,N/A,,Mist,0,2012-11-24 19:20:00
8:50 PM,55.4,53.6,94,30.24,3.1,Calm,Calm,-,N/A,,Mist,0,2012-11-24 19:50:00
9:20 PM,53.6,51.8,94,30.24,3.1,Calm,Calm,-,N/A,,Mist,0,2012-11-24 20:20:00
9:50 PM,53.6,51.8,94,30.24,3.1,Calm,Calm,-,N/A,,Mist,0,2012-11-24 20:50:00
10:20 PM,53.6,51.8,94,30.24,3.1,Variable,1.2,-,N/A,,Mist,0,2012-11-24 21:20:00
10:50 PM,51.8,50.0,94,30.24,3.1,Variable,1.2,-,N/A,,Mist,0,2012-11-24 21:50:00
11:20 PM,51.8,51.8,100,30.24,2.5,North,2.3,-,N/A,,Mist,360,2012-11-24 22:20:00
11:50 PM,53.6,51.8,94,30.24,2.5,North,2.3,-,N/A,,Mist,350,2012-11-24 22:50:00